AirNav   ATP
 
 1121 users online  

87KS Holyrood Municipal Airport
Holyrood, Kansas, USA

GOING TO HOLYROOD?


FAA INFORMATION EFFECTIVE 07 DECEMBER 2017

Location

FAA Identifier: 87KS
Lat/Long: 38-35-07.6000N / 098-24-16.8000W
38-35.126667N / 098-24.280000W
38.5854444 / -98.4046667
(estimated)
Elevation: 1809 ft. / 551 m (estimated)
Variation: 07E (1985)
From city: 1 mile SE of HOLYROOD, KS
Time zone: UTC -6 (UTC -5 during Daylight Saving Time)
Zip code: 67450

Airport Operations

Airport use: Private use. Permission required prior to landing
Activation date: 06/1947
Control tower: no
ARTCC: KANSAS CITY CENTER
FSS: WICHITA FLIGHT SERVICE STATION
Attendance: UNATNDD
Wind indicator: yes
Segmented circle: no

Airport Communications

WX AWOS-3 at 9K7 (13 nm NE): 119.675 (785-472-5609)

Airport Services

Airframe service: NONE
Powerplant service: NONE

Runway Information

Runway 17/35

Dimensions: 1650 x 100 ft. / 503 x 30 m
Surface: turf, in good condition
RUNWAY 17  RUNWAY 35
Latitude: 38-35.263167N38-34.991167N
Longitude: 098-24.277500W098-24.280333W
Elevation: 1809.0 ft.1797.0 ft.
Traffic pattern: leftleft
Runway heading: 173 magnetic, 180 true353 magnetic, 000 true
Obstructions: 50 ft. poles, lighted, 350 ft. from runway15 ft. trees, 185 ft. from runway, 67 ft. left of centerline, 12:1 slope to clear

Airport Ownership and Management from official FAA records

Ownership: Publicly-owned
Owner: CITY OF HOLYROOD
BOX 67
HOLYROOD, KS 67450
Phone 913-252-3652
Manager: NEYSA BROWN
CITY OF HOLYROOD, BOX 67
HOLYROOD, KS 67450
Phone 913-252-3652

Airport Operational Statistics

Aircraft operations: avg 42/month *
60% local general aviation
40% transient general aviation
* for 12-month period ending 13 November 1984

Instrument Procedures

There are no published instrument procedures at 87KS.

Some nearby airports with instrument procedures:

KLYO - Lyons-Rice County Municipal Airport (17 nm SE)
KRSL - Russell Municipal Airport (26 nm NW)
KGBD - Great Bend Municipal Airport (26 nm SW)
KMPR - Mc Pherson Airport (36 nm E)
KSLN - Salina Regional Airport (37 nm E)
 
Loc | Ops | Rwys | IFR | FBO | Links
Com | Nav | Svcs | Stats | Notes

Kansas City Aviation Department
 
Area around 87KS (Holyrood Municipal Airport)
 
Road maps at: MapQuest Bing Google
 
Aerial photo
No photo
 
Sectional chart

 
Airport distance calculator
Flying to Holyrood Municipal Airport? Find the distance to fly.

From to 87KS

Sunrise and sunset
Times for 12-Dec-2017
 Local
(UTC-6)
 Zulu
(UTC)
Morning civil twilight07:1313:13
Sunrise07:4313:43
Sunset17:1223:12
Evening civil twilight17:4123:41

Current date and time
Zulu (UTC)  12-Dec-2017 23:11:55
Local (UTC-6)  12-Dec-2017 17:11:55
 
METAR
KRSL 
26nm NW 
122253Z AUTO 21007KT 10SM CLR 11/M06 A3008 RMK AO2 SLP198 T01061056
KGBD 
26nm SW 
122256Z AUTO 22007KT 10SM CLR 12/M08 A3011 RMK AO2 SLP206 T01171078
KSLN 
37nm E 
122253Z 22006KT 10SM CLR 10/M03 A3012 RMK AO2 SLP205 T01001033
KHUT 
40nm SE 
122252Z 21005KT 10SM CLR 11/M06 A3012 RMK AO2 SLP203 T01061056
KHYS 
43nm W 
122256Z AUTO 19005KT 10SM CLR 13/M09 A3008 RMK AO2 SLP199 T01331089
TAF
KRSL 
26nm NW 
121720Z 1218/1318 24009KT P6SM SKC FM130000 21007KT P6SM SKC FM131500 30013G19KT P6SM SKC
KGBD 
26nm SW 
121720Z 1218/1318 27009KT P6SM SKC FM130000 22007KT P6SM SKC FM131100 27012KT P6SM SKC FM131500 32015KT P6SM SCT250 AMD LTD TO CLD VIS AND WIND
NOTAMs
Click for the latest NOTAMs
NOTAMs are issued by the DoD/FAA and will open in a separate window not controlled by AirNav.

 

 
 

Would you like to see your business listed on this page?

 If your business provides an interesting product or service to pilots, flight crews, aircraft, or users of the Holyrood Municipal Airport, you should consider listing it here.  To start the listing process, click on the button below
 
Add a business
 

Other Pages about Holyrood Municipal Airport

Update a link
 
Copyright © AirNav, LLC. All rights reserved. Privacy Policy  Contact